Location: Haulchin
(50.3172°N, 3.4360°E)
Time: 03:08:07
(UTC+00:00)

COBE Rocket - Pass Details

Date: 15 July 2025
Orbit: 674 x 773 km, 97.1° (Epoch: 12 December)

Event Time Altitude Azimuth Distance (km) Brightness Sun altitude
Rises 21:28:35 0° 14° (NNE) 3,076 7.8 -11.6°
Reaches altitude 10° 21:30:53 10° 18° (NNE) 2,144 6.9 -11.8°
Maximum altitude 21:35:32 64° 100° (E) 752 3.8 -12.2°
Enters shadow 21:39:33 13° 181° (S) 1,888 5.5 -12.5°
